Terug naar catalogus

SL-8 R/B

ActiefLEO
NORAD 6125·ROCKET BODY·🇷🇺 Russia

Gelanceerd Jul 20, 1972 vanaf Plesetsk Cosmodrome

Loading…

Volgende Passages (komende 24 uur)

TLE

VersSource: Space-Track

Epoch: Sep 14, 2026, 09:34 UTC

1 06125U 72057J   26257.39899473  .00000048  00000-0  52382-3 0  9994
2 06125  74.0137  53.1074 0068642  73.5870 300.9138 12.31002794433018

Volg SL-8 R/B in realtime met AllMySat

Download on the App Store